カタログに戻る

FREGAT R/B

運用中MEO
NORAD 40352·ROCKET BODY·🇷🇺 Russia

打ち上げ Dec 18, 2014 から Guiana Space Centre

Loading…

次のパス (今後24時間)

TLE

最新Source: Space-Track

元期: Sep 14, 2026, 09:10 UTC

1 40352U 14083E   26257.38211334 -.00000024  00000-0  00000-0 0  9994
2 40352   0.0943  52.6485 0007654  34.4489 272.9911  5.20672770223336

AllMySatでFREGAT R/Bをリアルタイム追跡

Download on the App Store